Weather History for Newberry, MI

Change the Weather History Date:

Friday, March 28, 2014

  Actual Average Record
Temperature  
Mean Temperature 24 °F -  
Max Temperature 32 °F 41 °F 74 °F (1946)
Min Temperature 16 °F 21 °F -12 °F (1923)
Degree Days  
Heating Degree Days 41    
Moisture  
Dew Point 26 °F    
Average Humidity 91    
Maximum Humidity 100    
Minimum Humidity 78    
Precipitation  
Precipitation 0.02 in - - ()
Sea Level Pressure  
Sea Level Pressure 29.83 in    
Wind  
Wind Speed 7 mph (NNW)    
Max Wind Speed 17 mph    
Max Gust Speed 25 mph    
Visibility 8 miles    
Events Snow    
Averages and records for this station are not official NWS values.
T = Trace of Precipitation, MM = Missing Value Source: NWS Daily Summary

Daily Weather History Graph

Daily Weather History Graph

Search for Another Location

Airport:

Trip Planner

Search our weather history database for the weather conditions in past years. The results will help you decide how hot, cold, wet, or windy it might be!

Date:

Astronomy

Mar. 28, 2014 Rise Set
Actual Time 7:29 AM EDT 8:05 PM EDT
Civil Twilight 6:59 AM EDT 8:35 PM EDT
Nautical Twilight 6:23 AM EDT 9:11 PM EDT
Astronomical Twilight 5:46 AM EDT 9:48 PM EDT
Moon 6:07 AM EDT (3/28) 5:55 PM EDT (3/28)
Length of Visible Light 13h 36m
Length of Day
12h 36m
Waning Crescent, 6% of the Moon is Illuminated
Mar 28
Waning Crescent
Mar 30
New
Apr 7
First Quarter
Apr 15
Full
Apr 22
Last Quarter

Hourly Weather History & Observations

Time (EDT) Temp. Windchill Dew Point Humidity Pressure Visibility Wind Dir Wind Speed Gust Speed Precip Events Conditions
12:15 AM 32.0 °F 26.4 °F 31.8 °F 99% 29.54 in 3.0 mi ESE 5.8 mph - N/A Snow Light Snow
12:35 AM 32.0 °F 24.8 °F 31.8 °F 99% 29.53 in 2.0 mi SE 8.1 mph - N/A Snow Light Snow
12:54 AM 32.0 °F 25.6 °F 31.8 °F 99% 29.51 in 2.5 mi ESE 6.9 mph - N/A Snow Light Snow
1:15 AM 32.0 °F 26.4 °F 31.8 °F 99% 29.50 in 2.0 mi ESE 5.8 mph - N/A Snow Light Snow
1:35 AM 32.0 °F 27.5 °F 31.8 °F 99% 29.50 in 2.0 mi East 4.6 mph - 0.01 in Snow Light Snow
1:55 AM 32.0 °F 28.7 °F 31.8 °F 99% 29.50 in 3.0 mi NE 3.5 mph - 0.01 in Snow Light Snow
2:15 AM 31.8 °F - 31.6 °F 99% 29.50 in 1.5 mi Calm Calm - N/A Snow Light Snow
2:34 AM 31.6 °F - 31.6 °F 100% 29.50 in 0.8 mi Calm Calm - 0.01 in Snow Light Snow
2:55 AM 31.6 °F 27.0 °F 31.6 °F 100% 29.50 in 1.0 mi NNE 4.6 mph - 0.01 in Snow Light Snow
3:15 AM 31.6 °F 27.0 °F 31.6 °F 100% 29.49 in 0.8 mi North 4.6 mph - N/A Snow Light Snow
3:34 AM 31.6 °F 27.0 °F 31.6 °F 100% 29.49 in 1.2 mi North 4.6 mph - N/A Snow Light Snow
3:55 AM 31.6 °F 28.3 °F 31.6 °F 100% 29.49 in 3.0 mi North 3.5 mph - N/A Snow Light Snow
4:15 AM 31.6 °F 28.3 °F 31.6 °F 100% 29.50 in 3.0 mi North 3.5 mph - N/A Snow Light Snow
4:34 AM 31.6 °F 27.0 °F 31.6 °F 100% 29.51 in 3.0 mi NNW 4.6 mph - N/A Snow Light Snow
4:55 AM 31.6 °F 27.0 °F 31.6 °F 100% 29.51 in 4.0 mi NNW 4.6 mph - N/A   Overcast
5:15 AM 31.6 °F 27.0 °F 31.6 °F 100% 29.52 in 4.0 mi NNW 4.6 mph - N/A   Overcast
5:35 AM 31.8 °F 27.3 °F 31.8 °F 100% 29.53 in 3.0 mi NNW 4.6 mph - N/A Snow Light Snow
5:55 AM 31.6 °F 26.0 °F 31.5 °F 99% 29.53 in 3.0 mi NNW 5.8 mph - N/A Snow Light Snow
6:14 AM 31.6 °F 26.0 °F 31.5 °F 99% 29.54 in 4.0 mi NNW 5.8 mph - N/A Snow Light Snow
6:35 AM 31.6 °F 25.1 °F 31.5 °F 99% 29.55 in 7.0 mi NNW 6.9 mph - N/A Snow Light Snow
6:55 AM 31.6 °F 23.1 °F 31.1 °F 98% 29.56 in 7.0 mi NNW 10.4 mph - N/A   Overcast
7:14 AM 31.6 °F 23.7 °F 31.1 °F 98% 29.58 in 10.0 mi NNW 9.2 mph 16.1 mph N/A   Overcast
7:35 AM 31.6 °F 22.1 °F 31.1 °F 98% 29.60 in 10.0 mi NNW 12.7 mph 17.3 mph N/A   Overcast
7:55 AM 31.6 °F 22.6 °F 31.1 °F 98% 29.62 in 10.0 mi NNW 11.5 mph - N/A   Overcast
8:14 AM 30.9 °F 21.7 °F 30.4 °F 98% 29.64 in 5.0 mi NNW 11.5 mph 19.6 mph N/A   Overcast
8:35 AM 30.0 °F 20.5 °F 29.1 °F 96% 29.65 in 5.0 mi NNW 11.5 mph 19.6 mph N/A   Overcast
8:55 AM 29.3 °F 18.2 °F 28.4 °F 96% 29.67 in 5.0 mi NNW 15.0 mph 19.6 mph N/A   Overcast
9:14 AM 28.4 °F 18.0 °F 27.3 °F 96% 29.69 in 7.0 mi NNW 12.7 mph 20.7 mph N/A   Overcast
9:35 AM 28.0 °F 17.0 °F 26.4 °F 94% 29.71 in 10.0 mi NNW 13.8 mph 20.7 mph N/A   Overcast
9:55 AM 27.9 °F 19.1 °F 25.9 °F 92% 29.72 in 7.0 mi NNW 9.2 mph 25.3 mph N/A   Overcast
10:15 AM 28.2 °F 18.3 °F 25.9 °F 91% 29.73 in 10.0 mi NNW 11.5 mph 20.7 mph N/A   Overcast
10:35 AM 28.0 °F 15.7 °F 25.7 °F 91% 29.74 in 10.0 mi NNW 17.3 mph 23.0 mph N/A   Overcast
10:54 AM 27.9 °F 19.1 °F 25.5 °F 91% 29.76 in 10.0 mi NNW 9.2 mph 18.4 mph N/A   Overcast
11:15 AM 27.5 °F 17.4 °F 24.8 °F 90% 29.78 in 10.0 mi NNW 11.5 mph 19.6 mph N/A   Overcast
11:35 AM 27.3 °F 17.7 °F 24.6 °F 90% 29.79 in 10.0 mi NNW 10.4 mph 21.9 mph N/A   Overcast
11:54 AM 27.1 °F 15.4 °F 23.9 °F 88% 29.81 in 10.0 mi NNW 15.0 mph 23.0 mph N/A   Overcast
12:15 PM 27.5 °F 16.8 °F 24.8 °F 90% 29.83 in 10.0 mi NNW 12.7 mph 20.7 mph N/A   Overcast
12:35 PM 27.9 °F 16.3 °F 24.8 °F 88% 29.84 in 10.0 mi NNW 15.0 mph 19.6 mph N/A   Overcast
12:54 PM 28.2 °F 17.7 °F 24.8 °F 87% 29.86 in 10.0 mi NNW 12.7 mph 19.6 mph N/A   Overcast
1:15 PM 28.4 °F 18.5 °F 24.6 °F 86% 29.88 in 10.0 mi NNW 11.5 mph 20.7 mph N/A   Overcast
1:35 PM 28.9 °F 19.2 °F 25.7 °F 88% 29.90 in 10.0 mi NNW 11.5 mph 17.3 mph N/A   Overcast
1:55 PM 28.9 °F 18.6 °F 25.3 °F 86% 29.91 in 10.0 mi NNW 12.7 mph 20.7 mph N/A   Overcast
2:15 PM 29.3 °F 21.5 °F 25.9 °F 87% 29.92 in 10.0 mi NNW 8.1 mph 19.6 mph N/A   Overcast
2:34 PM 29.7 °F 19.6 °F 25.9 °F 86% 29.93 in 10.0 mi NNW 12.7 mph 18.4 mph N/A   Overcast
2:55 PM 29.3 °F 19.6 °F 25.7 °F 86% 29.94 in 10.0 mi North 11.5 mph - N/A   Overcast
3:15 PM 29.3 °F 21.5 °F 25.5 °F 86% 29.95 in 10.0 mi NNW 8.1 mph - N/A   Overcast
3:34 PM 29.3 °F 19.1 °F 25.3 °F 85% 29.96 in 10.0 mi NNW 12.7 mph - N/A   Overcast
3:55 PM 29.3 °F 19.1 °F 25.2 °F 85% 29.97 in 10.0 mi NNW 12.7 mph 18.4 mph N/A   Overcast
4:15 PM 29.3 °F 20.2 °F 25.5 °F 86% 29.99 in 10.0 mi NNW 10.4 mph - N/A   Overcast
4:34 PM 29.7 °F 20.7 °F 25.2 °F 83% 30.00 in 10.0 mi NW 10.4 mph 18.4 mph N/A   Overcast
4:55 PM 28.8 °F 20.2 °F 24.4 °F 84% 30.01 in 10.0 mi NNW 9.2 mph 19.6 mph N/A   Overcast
5:15 PM 28.4 °F 20.4 °F 24.1 °F 84% 30.03 in 10.0 mi NW 8.1 mph - N/A   Overcast
5:34 PM 28.0 °F 18.1 °F 23.2 °F 82% 30.05 in 10.0 mi NW 11.5 mph 17.3 mph N/A   Overcast
5:55 PM 29.1 °F 19.4 °F 23.4 °F 79% 30.08 in 10.0 mi WNW 11.5 mph 16.1 mph N/A   Overcast
6:14 PM 27.5 °F 19.3 °F 21.9 °F 80% 30.09 in 10.0 mi NW 8.1 mph - N/A   Overcast
6:35 PM 27.5 °F 19.3 °F 21.6 °F 78% 30.11 in 10.0 mi NW 8.1 mph 17.3 mph N/A   Mostly Cloudy
6:55 PM 27.3 °F 20.9 °F 21.7 °F 80% 30.11 in 10.0 mi NW 5.8 mph - N/A   Scattered Clouds
7:15 PM 26.8 °F 20.2 °F 21.2 °F 79% 30.11 in 10.0 mi NNW 5.8 mph - N/A   Scattered Clouds
7:35 PM 25.3 °F 19.7 °F 21.2 °F 84% 30.13 in 10.0 mi NW 4.6 mph - N/A   Scattered Clouds
7:54 PM 25.2 °F 19.5 °F 20.5 °F 82% 30.15 in 10.0 mi NW 4.6 mph - N/A   Clear
8:15 PM 24.1 °F - 20.3 °F 85% 30.17 in 10.0 mi Calm Calm - N/A   Clear
8:35 PM 21.7 °F 15.5 °F 18.9 °F 89% 30.20 in 10.0 mi West 4.6 mph - N/A   Clear
8:54 PM 18.9 °F 12.1 °F 16.3 °F 90% 30.20 in 10.0 mi WNW 4.6 mph - N/A   Clear
9:15 PM 22.8 °F 18.2 °F 17.1 °F 79% 30.21 in 10.0 mi NW 3.5 mph - N/A   Clear
9:35 PM 20.5 °F 15.6 °F 15.4 °F 81% 30.21 in 10.0 mi West 3.5 mph - N/A   Clear
9:54 PM 19.6 °F 14.5 °F 15.6 °F 85% 30.21 in 10.0 mi WNW 3.5 mph - N/A   Clear
10:15 PM 17.1 °F - 14.0 °F 88% 30.21 in 10.0 mi Calm Calm - N/A   Clear
10:35 PM 16.9 °F - 14.9 °F 92% 30.22 in 10.0 mi Calm Calm - N/A   Clear
10:54 PM 17.4 °F 10.4 °F 16.0 °F 94% 30.21 in 10.0 mi WNW 4.6 mph - N/A   Clear
11:15 PM 22.1 °F 15.9 °F 16.5 °F 79% 30.22 in 10.0 mi NW 4.6 mph - N/A   Clear
11:35 PM 22.1 °F 14.7 °F 16.9 °F 80% 30.23 in 10.0 mi NW 5.8 mph - N/A   Clear
11:54 PM 21.9 °F 15.7 °F 17.6 °F 83% 30.23 in 10.0 mi NW 4.6 mph - N/A   Clear